Flag for Aruba Weather past 2 weeks in Oranjestad, Aruba

Now
84 °F

Passing clouds.


Feels Like: 96 °F
Forecast: 83 / 91 °F
Wind: 29 mph from East

Location: Queen Beatrix Airport - Aruba

Current Time: Aug 28, 2015 at 11:25:04 PM

Latest Report: Aug 28, 2015 at 10:00 PM


Visibility: N/A

Pressure: 29.80 "Hg

Humidity: 84%

Dew point: 79 °F

Location of OranjestadLocation

Historic Weather in Oranjestad — Graph

°F

Oranjestad temperature yesterday

Maximum temperature yesterday: 91 °F (at 1:00 PM)
Minimum temperature yesterday: 81 °F (at 5:00 AM)
Average temperature yesterday: 86 °F

Past Weeks' High & Low Weather Summary

 TemperatureHumidityPressure
High95 °F (Aug 28, 1:00 PM)100% (Aug 25, 10:00 PM)29.95 "Hg (Aug 25, 10:00 PM)
Low68 °F (Aug 25, 10:00 PM)50% (Aug 28, 1:00 PM)29.74 "Hg (Aug 24, 4:00 PM)
Average85 °F73%29.85 "Hg
* Reported Aug 13 10:00 PM — Aug 28 10:00 PM, Oranjestad, Weather by CustomWeather, © 2015

Note: Actual official high and low records may vary slightly from our data, if they occured in-between our weather recording intervals... More about our weather records

Advertising

Oranjestad weather history for previous 24 hours

 ConditionsComfort  
Time TempWeatherWind HumidityBarometerVisibility
10:00 PM
Fri, Aug 28
84 °FPassing clouds.29 mph84%29.80 "HgN/A
9:00 PM84 °FPassing clouds.29 mph79%29.77 "HgN/A
8:00 PM86 °FPassing clouds.28 mph75%29.77 "HgN/A
7:00 PM86 °FPassing clouds.26 mph75%29.74 "HgN/A
6:00 PM88 °FPassing clouds.22 mph70%29.74 "HgN/A
5:00 PM90 °FPassing clouds.24 mph67%29.74 "HgN/A
4:00 PM93 °FPassing clouds.24 mph56%29.74 "HgN/A
3:00 PM95 °FPassing clouds.23 mph50%29.74 "HgN/A
2:00 PM93 °FPassing clouds.23 mph56%29.77 "HgN/A
1:00 PM95 °FPassing clouds.22 mph50%29.80 "HgN/A
12:00 PM91 °FPassing clouds.18 mph59%29.80 "HgN/A
11:00 AM90 °FPassing clouds.8 mph63%29.89 "HgN/A
10:00 AM90 °FPassing clouds.17 mph63%29.83 "HgN/A
9:00 AM88 °FPassing clouds.15 mph70%29.83 "HgN/A
8:00 AM86 °FPassing clouds.15 mph75%29.83 "HgN/A
7:00 AM82 °FPassing clouds.12 mph84%29.83 "HgN/A
6:00 AM82 °FPassing clouds.8 mph84%29.80 "HgN/A
5:00 AM82 °FPassing clouds.8 mph89%29.80 "HgN/A
3:00 AM82 °FPassing clouds.9 mphN/A29.80 "HgN/A
2:00 AM82 °FPassing clouds.6 mph84%29.83 "HgN/A
12:00 AM84 °FPassing clouds.12 mph84%29.86 "HgN/A
11:00 PM
Thu, Aug 27
84 °FPassing clouds.13 mph79%29.86 "HgN/A
Weather by CustomWeather, © 2015

See weather overviewHow to use our weather pages